Hourly Weather Alipur

Today, 3 December, Thursday

Time Temperature Precipitation Wind Pressure Humidity
00:00 +21°C° 0 mm 1 mps 741 mmHg 23%
01:00 +21°C° 0 mm 1 mps 741 mmHg 24%
02:00 +20°C° 0 mm 1 mps 740 mmHg 24%
03:00 +20°C° 0 mm 1 mps 740 mmHg 24%
04:00 +20°C° 0 mm 1 mps 741 mmHg 25%
05:00 +19°C° 0 mm 1 mps 741 mmHg 25%
06:00 +20°C° 0 mm 1 mps 741 mmHg 25%
07:00 +20°C° 0 mm 1 mps 742 mmHg 24%
08:00 +21°C° 0 mm 1 mps 743 mmHg 24%
09:00 +21°C° 0 mm 0 mps 743 mmHg 22%
10:00 +23°C° 0 mm 0 mps 743 mmHg 19%
11:00 +24°C° 0 mm 0 mps 743 mmHg 17%
12:00 +27°C° 0 mm 1 mps 742 mmHg 16%
13:00 +28°C° 0 mm 1 mps 741 mmHg 15%
14:00 +29°C° 0 mm 2 mps 740 mmHg 14%
15:00 +28°C° 0 mm 1 mps 740 mmHg 16%
16:00 +27°C° 0 mm 1 mps 740 mmHg 17%
17:00 +26°C° 0 mm 1 mps 740 mmHg 18%
18:00 +25°C° 0 mm 1 mps 741 mmHg 19%
19:00 +24°C° 0 mm 1 mps 741 mmHg 21%
20:00 +23°C° 0 mm 1 mps 741 mmHg 22%
21:00 +23°C° 0 mm 1 mps 741 mmHg 23%
22:00 +22°C° 0 mm 1 mps 741 mmHg 23%
23:00 +22°C° 0 mm 1 mps 741 mmHg 24%

Tomorrow, 4 December, Friday

Time Temperature Precipitation Wind Pressure Humidity
00:00 +21°C° 0 mm 1 mps 741 mmHg 26%
01:00 +21°C° 0 mm 1 mps 740 mmHg 27%
02:00 +20°C° 0 mm 1 mps 740 mmHg 28%
03:00 +20°C° 0 mm 1 mps 740 mmHg 29%
04:00 +20°C° 0 mm 1 mps 740 mmHg 30%
05:00 +20°C° 0 mm 1 mps 739 mmHg 31%
06:00 +20°C° 0 mm 1 mps 740 mmHg 30%
07:00 +21°C° 0 mm 1 mps 741 mmHg 29%
08:00 +21°C° 0 mm 1 mps 741 mmHg 28%
09:00 +23°C° 0 mm 1 mps 741 mmHg 25%
10:00 +25°C° 0 mm 1 mps 741 mmHg 21%
11:00 +27°C° 0 mm 1 mps 741 mmHg 18%
12:00 +28°C° 0 mm 1 mps 741 mmHg 16%
13:00 +29°C° 0 mm 1 mps 740 mmHg 15%
14:00 +30°C° 0 mm 1 mps 739 mmHg 14%
15:00 +29°C° 0 mm 1 mps 739 mmHg 15%
16:00 +27°C° 0 mm 1 mps 739 mmHg 16%
17:00 +26°C° 0 mm 1 mps 739 mmHg 17%
18:00 +26°C° 0 mm 1 mps 739 mmHg 18%
19:00 +25°C° 0 mm 2 mps 740 mmHg 19%
20:00 +24°C° 0 mm 2 mps 740 mmHg 20%
21:00 +23°C° 0 mm 2 mps 740 mmHg 22%
22:00 +23°C° 0 mm 2 mps 740 mmHg 24%
23:00 +21°C° 0 mm 2 mps 740 mmHg 26%

Day after tomorrow, 5 December, Saturday

Time Temperature Precipitation Wind Pressure Humidity
00:00 +21°C° 0 mm 2 mps 740 mmHg 27%
01:00 +20°C° 0 mm 2 mps 740 mmHg 28%
02:00 +20°C° 0 mm 2 mps 739 mmHg 30%
03:00 +19°C° 0 mm 2 mps 739 mmHg 31%
04:00 +19°C° 0 mm 2 mps 739 mmHg 32%
05:00 +19°C° 0 mm 2 mps 739 mmHg 33%
06:00 +19°C° 0 mm 2 mps 740 mmHg 32%
07:00 +19°C° 0 mm 2 mps 741 mmHg 32%
08:00 +20°C° 0 mm 2 mps 741 mmHg 32%
09:00 +22°C° 0 mm 3 mps 741 mmHg 29%
10:00 +24°C° 0 mm 3 mps 741 mmHg 26%
11:00 +26°C° 0 mm 3 mps 741 mmHg 22%
12:00 +27°C° 0 mm 3 mps 741 mmHg 21%
13:00 +28°C° 0 mm 2 mps 740 mmHg 19%
14:00 +29°C° 0 mm 2 mps 740 mmHg 18%
15:00 +28°C° 0 mm 2 mps 740 mmHg 19%
16:00 +27°C° 0 mm 1 mps 740 mmHg 20%
17:00 +26°C° 0 mm 1 mps 740 mmHg 22%
18:00 +26°C° 0 mm 1 mps 740 mmHg 23%
19:00 +25°C° 0 mm 2 mps 740 mmHg 25%
20:00 +24°C° 0 mm 2 mps 741 mmHg 26%
21:00 +24°C° 0 mm 2 mps 741 mmHg 27%
22:00 +23°C° 0 mm 2 mps 741 mmHg 29%
23:00 +21°C° 0 mm 2 mps 741 mmHg 30%

6 December, Sunday

Time Temperature Precipitation Wind Pressure Humidity
00:00 +21°C° 0 mm 2 mps 741 mmHg 31%
01:00 +21°C° 0 mm 2 mps 741 mmHg 32%
02:00 +20°C° 0 mm 2 mps 741 mmHg 33%
03:00 +20°C° 0 mm 2 mps 741 mmHg 34%
04:00 +19°C° 0 mm 2 mps 741 mmHg 35%
05:00 +19°C° 0 mm 2 mps 741 mmHg 36%
06:00 +19°C° 0 mm 2 mps 742 mmHg 35%
07:00 +20°C° 0 mm 2 mps 743 mmHg 35%
08:00 +20°C° 0 mm 2 mps 743 mmHg 35%
09:00 +23°C° 0 mm 2 mps 743 mmHg 31%
10:00 +25°C° 0 mm 2 mps 743 mmHg 28%
11:00 +27°C° 0 mm 2 mps 743 mmHg 24%
12:00 +28°C° 0 mm 1 mps 743 mmHg 23%
13:00 +29°C° 0 mm 1 mps 742 mmHg 21%
14:00 +30°C° 0 mm 1 mps 741 mmHg 20%
15:00 +29°C° 0 mm 1 mps 741 mmHg 21%
16:00 +27°C° 0 mm 1 mps 741 mmHg 22%
17:00 +26°C° 0 mm 1 mps 741 mmHg 24%
18:00 +26°C° 0 mm 1 mps 742 mmHg 25%
19:00 +25°C° 0 mm 1 mps 742 mmHg 26%
20:00 +24°C° 0 mm 1 mps 742 mmHg 27%
21:00 +24°C° 0 mm 1 mps 742 mmHg 28%
22:00 +23°C° 0 mm 1 mps 742 mmHg 30%
23:00 +21°C° 0 mm 2 mps 742 mmHg 31%

7 December, Monday

Time Temperature Precipitation Wind Pressure Humidity
00:00 +21°C° 0 mm 2 mps 742 mmHg 32%
01:00 +21°C° 0 mm 1 mps 742 mmHg 33%
02:00 +21°C° 0 mm 1 mps 742 mmHg 35%
03:00 +21°C° 0 mm 1 mps 742 mmHg 35%
04:00 +20°C° 0 mm 1 mps 742 mmHg 36%
05:00 +20°C° 0 mm 1 mps 742 mmHg 37%
06:00 +20°C° 0 mm 1 mps 743 mmHg 36%
07:00 +20°C° 0 mm 2 mps 743 mmHg 35%
08:00 +20°C° 0 mm 2 mps 744 mmHg 35%
09:00 +23°C° 0 mm 2 mps 744 mmHg 31%
10:00 +25°C° 0 mm 2 mps 744 mmHg 26%
11:00 +27°C° 0 mm 2 mps 744 mmHg 22%
12:00 +28°C° 0 mm 3 mps 743 mmHg 20%
13:00 +29°C° 0 mm 3 mps 743 mmHg 19%
14:00 +30°C° 0 mm 3 mps 742 mmHg 17%
15:00 +29°C° 0 mm 3 mps 742 mmHg 19%
16:00 +28°C° 0 mm 3 mps 742 mmHg 20%
17:00 +27°C° 0 mm 2 mps 742 mmHg 22%
18:00 +26°C° 0 mm 2 mps 742 mmHg 24%
19:00 +25°C° 0 mm 2 mps 743 mmHg 25%
20:00 +24°C° 0 mm 2 mps 743 mmHg 26%
21:00 +24°C° 0 mm 2 mps 743 mmHg 27%
22:00 +23°C° 0 mm 2 mps 743 mmHg 27%
23:00 +23°C° 0 mm 1 mps 744 mmHg 28%

8 December, Tuesday

Time Temperature Precipitation Wind Pressure Humidity
00:00 +22°C° 0 mm 1 mps 743 mmHg 28%
01:00 +21°C° 0 mm 2 mps 743 mmHg 29%
02:00 +21°C° 0 mm 2 mps 743 mmHg 29%
03:00 +21°C° 0 mm 1 mps 743 mmHg 30%
04:00 +21°C° 0 mm 1 mps 743 mmHg 31%
05:00 +20°C° 0 mm 1 mps 743 mmHg 31%
06:00 +21°C° 0 mm 1 mps 744 mmHg 31%
07:00 +21°C° 0 mm 1 mps 744 mmHg 31%
08:00 +21°C° 0 mm 1 mps 745 mmHg 30%
09:00 +23°C° 0 mm 2 mps 744 mmHg 27%
10:00 +25°C° 0 mm 2 mps 744 mmHg 24%
11:00 +27°C° 0 mm 2 mps 744 mmHg 21%
12:00 +28°C° 0 mm 2 mps 744 mmHg 20%
13:00 +29°C° 0 mm 2 mps 743 mmHg 18%
14:00 +30°C° 0 mm 3 mps 742 mmHg 17%
15:00 +29°C° 0 mm 2 mps 742 mmHg 19%
16:00 +28°C° 0 mm 2 mps 742 mmHg 21%
17:00 +27°C° 0 mm 2 mps 742 mmHg 22%
18:00 +26°C° 0 mm 2 mps 742 mmHg 23%
19:00 +25°C° 0 mm 2 mps 742 mmHg 24%
20:00 +25°C° 0 mm 2 mps 743 mmHg 25%
21:00 +24°C° 0 mm 2 mps 743 mmHg 26%
22:00 +23°C° 0 mm 2 mps 743 mmHg 26%
23:00 +23°C° 0 mm 2 mps 743 mmHg 27%
Show more